N6EQ Weather Reports


time (UTC)temp
C
wind
direction
speed
KPH
gust
KPH
rain 1hr
cm
rain 24hr
cm
rain mn
cm
humidity
%
barometer
mb
20260902014606 37 195 19.3 33.8 0.00 0.00 0.00 18 947.9
20260902013005 37 225 24.1 38.6 0.00 0.00 0.00 18 947.8
20260902011502 37 172 14.5 37.0 0.00 0.00 0.00 18 947.8
20260902010002 37 243 17.7 45.1 0.00 0.00 0.00 18 947.9
20260902004559 37 233 22.5 40.2 0.00 0.00 0.00 20 948.0
20260902003058 37 205 29.0 53.1 0.00 0.00 0.00 21 948.2
20260902001556 37 168 22.5 37.0 0.00 0.00 0.00 27 948.3
20260902000100 37 205 20.9 33.8 0.00 0.00 0.00 28 948.2
20260901234553 37 172 24.1 38.6 0.00 0.00 0.00 28 948.4
20260901233049 37 152 20.9 45.1 0.00 0.00 0.00 30 948.6
20260901231547 37 148 17.7 40.2 0.00 0.00 0.00 30 948.7
20260901230041 37 203 22.5 40.2 0.00 0.00 0.00 30 948.8
20260901224538 37 205 19.3 40.2 0.00 0.00 0.00 29 949.0
20260901223043 36 229 20.9 38.6 0.00 0.00 0.00 30 949.1
20260901221533 37 195 22.5 38.6 0.00 0.00 0.00 29 949.3
20260901220036 36 139 20.9 40.2 0.00 0.00 0.00 30 949.4
20260901214525 36 203 22.5 45.1 0.00 0.00 0.00 31 949.5
20260901213023 36 151 25.7 43.5 0.00 0.00 0.00 31 949.8
20260901211517 36 11.3 40.2 0.00 0.00 0.00 30 950.0
20260901210013 36 215 16.1 35.4 0.00 0.00 0.00 31 950.3
20260901204510 36 195 29.0 43.5 0.00 0.00 0.00 31 950.5
20260901203009 35 227 22.5 43.5 0.00 0.00 0.00 31 950.8
20260901201506 35 173 16.1 35.4 0.00 0.00 0.00 35 951.0
20260901200108 35 189 22.5 35.4 0.00 0.00 0.00 35 951.2
20260901194510 35 166 22.5 38.6 0.00 0.00 0.00 34 951.5
20260901193003 35 206 14.5 37.0 0.00 0.00 0.00 32 951.7
20260901191600 34 131 20.9 35.4 0.00 0.00 0.00 37 951.9
20260901190109 33 216 19.3 40.2 0.00 0.00 0.00 39 952.1
20260901184558 34 236 19.3 37.0 0.00 0.00 0.00 39 952.2
20260901183056 33 219 16.1 27.4 0.00 0.00 0.00 39 952.4
20260901181558 33 177 17.7 32.2 0.00 0.00 0.00 41 952.3
20260901180051 33 142 17.7 29.0 0.00 0.00 0.00 42 952.5
20260901174550 32 206 19.3 41.8 0.00 0.00 0.00 45 952.4
20260901173048 32 153 17.7 35.4 0.00 0.00 0.00 45 952.5
20260901171603 32 122 17.7 37.0 0.00 0.00 0.00 46 952.6
20260901170049 32 174 22.5 40.2 0.00 0.00 0.00 45 952.6
20260901164545 32 206 17.7 35.4 0.00 0.00 0.00 45 952.5
20260901163040 32 185 17.7 33.8 0.00 0.00 0.00 44 952.4
20260901161541 31 207 22.5 32.2 0.00 0.00 0.00 43 952.3
20260901160039 31 154 17.7 37.0 0.00 0.00 0.00 45 952.2
20260901154534 31 212 19.3 35.4 0.00 0.00 0.00 45 952.2
20260901153031 31 172 22.5 43.5 0.00 0.00 0.00 44 952.2
20260901151528 30 153 19.3 33.8 0.00 0.00 0.00 46 952.0
20260901150026 28 264 6.4 17.7 0.00 0.00 0.00 51 952.0
20260901144529 28 252 4.8 11.3 0.00 0.00 0.00 51 952.1
20260901143025 28 214 6.4 11.3 0.00 0.00 0.00 51 952.1
20260901141534 28 172 0.0 0.0 0.00 0.00 0.00 51 951.9
20260901140022 28 113 0.0 0.0 0.00 0.00 0.00 52 951.9
20260901134522 27 104 0.0 0.0 0.00 0.00 0.00 53 951.7
20260901133020 27 104 0.0 0.0 0.00 0.00 0.00 53 951.7
20260901131519 27 91 0.0 0.0 0.00 0.00 0.00 53 951.6
20260901130017 27 109 0.0 0.0 0.00 0.00 0.00 53 951.5
20260901124516 27 122 0.0 0.0 0.00 0.00 0.00 54 951.4
20260901123015 27 96 0.0 0.0 0.00 0.00 0.00 54 951.3
20260901121515 27 75 0.0 0.0 0.00 0.00 0.00 55 951.3
20260901120013 27 75 0.0 1.6 0.00 0.00 0.00 54 951.2
20260901114517 27 205 0.0 0.0 0.00 0.00 0.00 54 951.2
20260901113009 27 224 0.0 3.2 0.00 0.00 0.00 53 951.2
20260901111506 28 244 0.0 0.0 0.00 0.00 0.00 52 951.2
20260901110005 28 251 1.6 6.4 0.00 0.00 0.00 52 951.1
20260901104504 28 221 3.2 8.0 0.00 0.00 0.00 51 951.2
20260901103002 28 220 4.8 8.0 0.00 0.00 0.00 51 951.2
20260901101502 28 231 3.2 8.0 0.00 0.00 0.00 52 951.2
20260901100001 28 146 0.0 0.0 0.00 0.00 0.00 51 951.1
20260901094600 28 141 0.0 0.0 0.00 0.00 0.00 52 951.0
20260901093058 28 159 0.0 0.0 0.00 0.00 0.00 51 951.0
20260901091558 28 217 0.0 0.0 0.00 0.00 0.00 52 950.9
20260901090056 28 205 0.0 0.0 0.00 0.00 0.00 52 950.9
20260901084555 28 218 0.0 0.0 0.00 0.00 0.00 52 950.9
20260901083054 28 209 0.0 0.0 0.00 0.00 0.00 51 951.0
20260901081554 29 130 0.0 6.4 0.00 0.00 0.00 51 951.0
20260901080054 29 212 3.2 8.0 0.00 0.00 0.00 51 951.1
20260901074601 29 234 4.8 11.3 0.00 0.00 0.00 50 951.0
20260901073047 29 224 3.2 11.3 0.00 0.00 0.00 49 950.9
20260901071543 30 251 4.8 12.9 0.00 0.00 0.00 47 950.8
20260901070040 30 239 4.8 9.7 0.00 0.00 0.00 47 950.7
20260901064640 30 217 6.4 12.9 0.00 0.00 0.00 46 950.5
20260901063043 30 226 6.4 16.1 0.00 0.00 0.00 45 950.4
20260901061539 31 240 9.7 12.9 0.00 0.00 0.00 44 950.3
20260901060038 31 222 6.4 16.1 0.00 0.00 0.00 43 950.3
20260901054538 31 212 11.3 19.3 0.00 0.00 0.00 43 950.4
20260901053037 31 227 11.3 17.7 0.00 0.00 0.00 43 950.5
20260901051537 31 248 8.0 20.9 0.00 0.00 0.00 41 950.4
20260901050036 31 231 11.3 17.7 0.00 0.00 0.00 43 950.4
20260901044535 32 218 9.7 17.7 0.00 0.00 0.00 41 950.3
20260901043034 32 187 0.0 1.6 0.00 0.00 0.00 40 950.1
20260901041539 32 143 0.0 16.1 0.00 0.00 0.00 42 950.0
20260901040033 31 255 4.8 16.1 0.00 0.00 0.00 42 949.8
20260901034532 31 236 1.6 9.7 0.00 0.00 0.00 41 949.5
20260901033031 32 278 3.2 11.3 0.00 0.00 0.00 41 949.2
20260901031532 33 264 1.6 12.9 0.00 0.00 0.00 38 949.0
20260901030032 33 208 6.4 22.5 0.00 0.00 0.00 37 948.9
20260901024529 34 122 11.3 24.1 0.00 0.00 0.00 35 948.7
20260901023028 34 149 12.9 27.4 0.00 0.00 0.00 36 948.4
20260901021528 35 165 12.9 27.4 0.00 0.00 0.00 36 948.2
20260901020027 35 128 14.5 35.4 0.00 0.00 0.00 34 947.9